Weather History for Luxor, Egypt

Change the Weather History Date:

Wednesday, June 26, 2013

  Actual Average Record
Temperature  
Mean Temperature 92 °F -  
Max Temperature 107 °F 103 °F 113 °F (2007)
Min Temperature 78 °F 77 °F 71 °F (1999)
Cooling Degree Days 28    
Growing Degree Days 42 (Base 50)    
Moisture  
Dew Point 51 °F    
Average Humidity 22    
Maximum Humidity 32    
Minimum Humidity 10    
Precipitation  
Precipitation 0.00 in 0.00 in - ()
Sea Level Pressure  
Sea Level Pressure 29.71 in    
Wind  
Wind Speed 2 mph ()    
Max Wind Speed 5 mph    
Max Gust Speed -    
Visibility 6.0 miles    
Events      
Averages and records for this station are not official NWS values.
T = Trace of Precipitation, MM = Missing Value Source: Averaged Metar Reports

Daily Weather History Graph

Daily Weather History Graph

Search for Another Location

Airport:

Trip Planner

Search our weather history database for the weather conditions in past years. The results will help you decide how hot, cold, wet, or windy it might be!

Date:

Astronomy

Jun. 26, 2013 Rise Set
Actual Time 4:59 AM EET 6:44 PM EET
Civil Twilight 4:33 AM EET 7:10 PM EET
Nautical Twilight 4:02 AM EET 7:41 PM EET
Astronomical Twilight 3:29 AM EET 8:14 PM EET
Moon 9:18 PM EET (6/26) 8:07 AM EET (6/26)
Length of Visible Light 14h 36m
Length of Day
13h 44m
Waning Gibbous, 87% of the Moon is Illuminated
Jun 26
Waning Gibbous
Jun 30
Last Quarter
Jul 8
New
Jul 16
First Quarter
Jul 22
Full

Hourly Weather History & Observations

Time (EET) Temp. Heat Index Dew Point Humidity Pressure Visibility Wind Dir Wind Speed Gust Speed Precip Events Conditions
12:00 AM 87.8 °F - 48.2 °F 25% 29.71 in - SE 3.5 mph - N/A   Clear
1:00 AM 86.0 °F - 46.4 °F 25% 29.71 in - SSE 3.5 mph - N/A   Clear
2:00 AM 84 °F - 47 °F 17% 29.70 in 6 mi SE 4.6 mph - -  
2:00 AM 84.2 °F - 46.4 °F 27% 29.71 in - SE 4.6 mph - N/A   Clear
3:00 AM 82.4 °F - 46.4 °F 28% 29.71 in - SSE 2.3 mph - N/A   Clear
5:00 AM 80.6 °F - 48.2 °F 32% 29.71 in - SSE 1.2 mph - N/A   Clear
6:00 AM 78.8 °F - 44.6 °F 30% 29.74 in - SE 2.3 mph - N/A   Clear
7:00 AM 87.8 °F - 48.2 °F 25% 29.77 in - Calm Calm - N/A   Clear
8:00 AM 91 °F - 50 °F 16% 29.75 in 6 mi Calm Calm - -  
8:00 AM 91.4 °F - 50.0 °F 24% 29.77 in - Calm Calm - N/A   Clear
9:00 AM 95.0 °F 92.7 °F 53.6 °F 25% 29.77 in - Calm Calm - N/A   Clear
10:00 AM 96.8 °F 94.4 °F 53.6 °F 23% 29.74 in - Calm Calm - N/A   Clear
11:00 AM 100.4 °F 98.8 °F 55.4 °F 22% 29.74 in - NNE 2.3 mph - N/A   Clear
12:00 PM 102.2 °F 100.4 °F 53.6 °F 20% 29.74 in - WNW 4.6 mph - N/A   Clear
1:00 PM 105.8 °F 104.9 °F 55.4 °F 19% 29.71 in - Calm Calm - N/A   Clear
2:00 PM 105 °F - 51 °F 10% 29.69 in 6 mi WNW 3.5 mph - -  
2:00 PM 105.8 °F - 51.8 °F 17% 29.71 in - WNW 3.5 mph - N/A   Clear
3:00 PM 105.8 °F - 50.0 °F 15% 29.68 in - North 3.5 mph - N/A   Clear
4:00 PM 107.6 °F - 51.8 °F 16% 29.71 in - NW 4.6 mph - N/A   Clear
5:00 PM 105.8 °F 104.3 °F 53.6 °F 18% 29.68 in - NNW 2.3 mph - N/A   Clear
6:00 PM 104.0 °F 102.3 °F 53.6 °F 19% 29.65 in - Calm Calm - N/A   Clear
7:00 PM 98.6 °F 97.2 °F 55.4 °F 24% 29.68 in - Calm Calm - N/A   Clear
8:00 PM 94 °F - 52 °F 15% 29.67 in 6 mi West 2.3 mph - -  
8:00 PM 95.0 °F - 51.8 °F 23% 29.68 in - West 2.3 mph - N/A   Clear
9:00 PM 91.4 °F - 51.8 °F 26% 29.68 in - WSW 3.5 mph - N/A   Clear
10:00 PM 87.8 °F - 51.8 °F 29% 29.71 in - Calm Calm - N/A   Clear
11:00 PM 93.2 °F 91.3 °F 55.4 °F 28% 29.71 in - Calm Calm - N/A   Clear